User: anonymous   Login
Location: Unspecified
(0.0000°N, 0.0000°E)
Time: 05:55:49
(UTC+00:00)
Language:

APRIZESAT 4 - Orbit

View from above orbital plane
View from above orbital plane
View from above satellite
View from above satellite

Ground track
Ground track

The orbit data is extracted from the following two-line orbital elements,

1 35684U 09041D   17227.84398747  .00000039  00000-0  12833-4 0  9992
2 35684  98.1320 170.7559 0045929 265.2598 152.5614 14.79046158433954
Epoch (UTC): 15 August 2017 20:15:20
Eccentricity: 0.0045929
inclination: 98.1320°
perigee height: 600 km
apogee height: 664 km
right ascension of ascending node: 170.7559°
argument of perigee: 265.2598°
revolutions per day: 14.79046158
mean anomaly at epoch: 152.5614°
orbit number at epoch: 43395

The dashed part of the orbit path shows where the satellite is in the earth's shadow,  

DLR